| time (UTC) | temp F | wind direction | speed MPH | gust MPH | rain 1hr in | rain 24hr in | rain mn in | humidity % | barometer mb |
| 20260504204942 | 82 | 109 | 2.0 | 2.0 | 0.00 | 0.00 | 0.00 | 60 | |
| 20260504201937 | 83 | 162 | 2.0 | 5.0 | 0.00 | 0.00 | 0.00 | 60 | |
| 20260504194936 | 82 | 136 | 2.0 | 3.0 | 0.00 | 0.00 | 0.00 | 61 | |
| 20260504191931 | 83 | 192 | 5.0 | 8.0 | 0.00 | 0.00 | 0.00 | 59 | |
| 20260504184927 | 82 | 23 | 3.0 | 8.0 | 0.00 | 0.00 | 0.00 | 60 | |
| 20260504181926 | 81 | 174 | 2.0 | 3.0 | 0.00 | 0.00 | 0.00 | 59 | |
| 20260504174924 | 80 | 198 | 2.0 | 6.0 | 0.00 | 0.00 | 0.00 | 61 | |
| 20260504171922 | 79 | 65 | 2.0 | 6.0 | 0.00 | 0.00 | 0.00 | 63 | |
| 20260504081840 | 59 | 143 | 0.0 | 0.0 | 0.00 | 0.00 | 0.00 | 87 | |
| 20260504044823 | 62 | 137 | 0.0 | 0.0 | 0.00 | 0.00 | 0.00 | 76 | |
| 20260504041822 | 63 | 139 | 0.0 | 1.0 | 0.00 | 0.00 | 0.00 | 73 | |
| 20260504034820 | 64 | 132 | 0.0 | 1.0 | 0.00 | 0.00 | 0.00 | 73 | |
| 20260504031821 | 64 | 146 | 0.0 | 1.0 | 0.00 | 0.00 | 0.00 | 70 | |
| 20260504024819 | 65 | 125 | 0.0 | 1.0 | 0.00 | 0.00 | 0.00 | 68 | |
| 20260504021815 | 67 | 134 | 0.0 | 0.0 | 0.00 | 0.00 | 0.00 | 64 | |
| 20260504014813 | 69 | 136 | 0.0 | 0.0 | 0.00 | 0.00 | 0.00 | 58 | |
| 20260504011808 | 69 | 117 | 0.0 | 0.0 | 0.00 | 0.00 | 0.00 | 60 | |
| 20260504004804 | 73 | 132 | 0.0 | 0.0 | 0.00 | 0.00 | 0.00 | 54 | |
| 20260504001803 | 76 | 133 | 1.0 | 1.0 | 0.00 | 0.00 | 0.00 | 45 | |
| 20260503234758 | 78 | 128 | 1.0 | 1.0 | 0.00 | 0.00 | 0.00 | 42 | |
| 20260503231753 | 80 | 137 | 2.0 | 5.0 | 0.00 | 0.00 | 0.00 | 40 | |
| 20260503224748 | 81 | 127 | 1.0 | 2.0 | 0.00 | 0.00 | 0.00 | 38 | |
| 20260503221745 | 80 | 154 | 0.0 | 1.0 | 0.00 | 0.00 | 0.00 | 39 | |
| 20260503214740 | 82 | 63 | 3.0 | 3.0 | 0.00 | 0.00 | 0.00 | 37 | |
| 20260503211735 | 83 | 86 | 4.0 | 6.0 | 0.00 | 0.00 | 0.00 | 37 |